Tracking 35274 objects as of 12-Sep-2026
HD Live streaming from Space Station
objects crossing your sky now

COSMOS 886 DEB


10-day predictions


NORAD ID: 9956
Int'l Code: 1976-126AW
Launch date: December 27, 1976
Source: Commonwealth of Independent States (former USSR) (CIS)
Launch site: TYURATAM MISSILE AND SPACE COMPLEX (TTMTR)

Note: This is SATELLITE DEBRIS
Your satellite tracking list
Your tracking list is empty




NASA's NSSDC Master Catalog

Two Line Element Set (TLE):
1  9956U 76126AW  26247.38641382  .00000033  00000-0  15580-3 0  9995
2  9956  65.7953  40.8814 0931312 271.3646  78.0986 12.36903280540965
Source of the keplerian elements: AFSPC